Flag for U.S.A. Weather past 2 weeks in Bakersfield, California, U.S.A.

Now
78 °F

Clear.


Feels Like: 79 °F
Forecast: 68 / 93 °F
Wind: 5 mph from Northeast

Location: Meadows Field

Current Time: Sep 22, 2014 at 11:26:25 PM

Latest Report: Sep 22, 2014 at 10:54 PM


Visibility: 10 mi

Pressure: 29.92 "Hg

Humidity: 40%

Dew point: 52 °F

Location of BakersfieldLocation

Historic Weather in Bakersfield — Graph

°F

Bakersfield temperature yesterday

Maximum temperature yesterday: 90 °F (at 2:54 PM)
Minimum temperature yesterday: 72 °F (at 3:54 AM)
Average temperature yesterday: 80 °F

Past Weeks' High & Low Weather Summary

 TemperatureHumidityPressure
High105 °F (Sep 13, 3:54 PM)66% (Sep 22, 5:54 AM)29.99 "Hg (Sep 22, 5:54 AM)
Low66 °F (Sep 10, 5:54 AM)10% (Sep 12, 2:54 PM)29.67 "Hg (Sep 17, 4:54 PM)
Average83 °F31%29.81 "Hg
* Reported Sep 7 9:54 PM — Sep 22 9:54 PM, Bakersfield, Weather by CustomWeather, © 2014

Note: Actual official high and low records may vary slightly from our data, if they occured in-between our weather recording intervals... More about our weather records

Advertising

Bakersfield weather history for previous 24 hours

 ConditionsComfort  
Time TempWeatherWind HumidityBarometerVisibility
9:54 PM
Sep 22
82 °FClear.5 mph40%29.91 "Hg10 mi
8:54 PM81 °FClear.5 mph39%29.90 "Hg10 mi
7:54 PM82 °FClear.5 mph40%29.89 "Hg10 mi
6:54 PM86 °FSunny.7 mph33%29.87 "Hg10 mi
5:54 PM88 °FSunny.8 mph31%29.86 "Hg10 mi
4:54 PM89 °FSunny.10 mph30%29.87 "Hg10 mi
3:54 PM89 °FSunny.8 mph30%29.88 "Hg10 mi
2:54 PM87 °FSunny.6 mph33%29.90 "Hg10 mi
1:54 PM86 °FSunny.7 mph35%29.92 "Hg10 mi
12:54 PM84 °FSunny.8 mph36%29.95 "Hg10 mi
11:54 AM82 °FSunny.8 mph38%29.96 "Hg10 mi
10:54 AM77 °FSunny.6 mph47%29.98 "Hg10 mi
9:54 AM75 °FSunny.3 mph50%29.98 "Hg9 mi
8:54 AM72 °FSunny.6 mph57%29.99 "Hg9 mi
7:54 AM68 °FSunny.5 mph63%29.98 "Hg9 mi
6:54 AM67 °FClear.5 mph66%29.97 "Hg10 mi
5:54 AM67 °FClear.6 mph66%29.96 "Hg10 mi
4:54 AM68 °FClear.3 mph59%29.95 "Hg10 mi
3:54 AM69 °FClear.7 mph57%29.95 "Hg10 mi
2:54 AM69 °FClear.7 mph55%29.94 "Hg10 mi
1:54 AM71 °FClear.5 mph47%29.94 "Hg10 mi
12:54 AM73 °FClear.5 mph46%29.93 "Hg10 mi
11:54 PM
Sep 21
75 °FClear.No wind40%29.92 "Hg10 mi
Weather by CustomWeather, © 2014

See weather overviewHow to use our weather pages